Location: Ch�teau-Arnoux
(44.0814°N, 6.0027°E)
Time: 02:21:33
(UTC+00:00)

H-2A R/B - Pass Details

Date: 15 November 2019
Orbit: 530 x 653 km, 98.3° (Epoch: 14 December)

Event Time Altitude Azimuth Distance (km) Brightness Sun altitude
Rises 04:50:51 0° 2° (N) 2,981 6.0 -17.9°
Reaches altitude 10° 04:53:21 10° 350° (N) 2,070 5.0 -17.5°
Enters shadow 04:55:45 22° 322° (NW) 1,417 4.0 -17.0°
